Date,TemperatureHighF,TemperatureAvgF,TemperatureLowF,DewpointHighF,DewpointAvgF,DewpointLowF,HumidityHigh,HumidityAvg,HumidityLow,PressureMaxIn,PressureMinIn,WindSpeedMaxMPH,WindSpeedAvgMPH,GustSpeedMaxMPH,PrecipitationSumIn
2013-1-1,45.4,41.6,36.8,44.3,37.4,31.4,96,85,79,30.32,30.06,4,1,8,0.01
2013-1-2,40.8,35.1,28.0,32.2,30.0,26.3,95,82,69,30.38,30.29,3,0,6,0.00
2013-1-3,50.8,39.3,26.2,32.9,29.6,25.0,96,70,45,30.50,30.36,4,1,11,0.00
2013-1-4,50.4,44.1,38.3,34.2,32.1,30.0,75,63,50,30.55,30.39,3,0,5,0.00
2013-1-5,53.9,43.3,35.9,40.5,37.6,33.8,95,81,60,30.39,30.24,6,1,9,0.00
2013-1-6,58.4,41.5,31.9,35.1,31.1,26.9,97,71,32,30.43,30.32,4,0,7,0.00
2013-1-7,56.5,42.1,26.2,37.7,31.9,23.9,93,69,44,30.37,30.14,5,0,9,0.00
2013-1-8,48.7,47.3,45.9,47.9,42.4,34.9,97,84,63,30.14,29.98,4,1,8,1.08
2013-1-9,56.3,53.3,48.5,55.2,52.4,47.4,98,97,96,30.16,29.97,7,2,15,2.05
2013-1-10,60.5,55.2,49.1,57.4,50.9,45.6,98,86,65,30.02,29.92,8,2,14,0.06
2013-1-11,72.3,58.7,46.6,61.6,50.5,43.8,91,76,53,29.98,29.78,8,2,20,0.00
2013-1-12,68.0,62.0,36.9,67.1,60.2,32.9,98,94,83,29.95,29.66,6,1,13,0.34
2013-1-13,44.0,36.5,30.6,33.1,27.1,21.6,87,69,52,30.32,29.94,4,2,14,0.00
2013-1-14,45.3,35.1,28.0,29.7,24.6,20.8,76,66,49,30.39,30.25,3,1,10,0.00
2013-1-15,37.9,34.7,29.6,31.0,27.5,23.6,92,75,64,30.27,30.19,3,1,11,0.06
2013-1-16,50.1,36.2,26.1,26.4,23.6,20.6,85,63,37,30.34,30.20,3,0,10,0.02
2013-1-17,61.0,44.6,32.0,37.8,31.7,25.8,84,63,37,30.53,30.27,3,0,9,0.00
2013-1-18,63.0,45.2,29.6,39.1,33.9,28.0,96,69,39,30.54,30.34,5,1,13,0.00
2013-1-19,65.4,51.2,40.9,48.4,42.5,35.9,91,73,52,30.30,30.16,5,1,11,0.00
2013-1-20,71.3,50.5,36.2,49.9,42.9,35.2,98,78,43,30.24,30.08,3,0,9,0.00
2013-1-21,59.2,47.8,38.8,43.0,36.0,27.6,96,66,47,30.32,30.13,3,1,9,0.00
2013-1-22,65.9,48.4,34.7,48.9,37.7,27.0,83,67,53,30.34,30.20,3,0,7,0.00
2013-1-23,74.7,59.8,45.9,57.6,52.2,44.3,96,78,54,30.28,30.13,5,1,14,0.00
2013-1-24,78.4,62.7,53.8,63.2,57.6,52.6,97,85,55,30.20,30.03,4,1,12,0.00
2013-1-25,60.5,51.6,46.8,58.4,47.8,43.8,95,87,75,30.21,30.02,2,0,7,0.00
2013-1-26,51.5,46.7,45.0,49.1,44.1,40.4,96,91,77,30.24,30.17,1,0,4,0.00
2013-1-27,74.8,60.4,48.6,64.3,56.4,47.8,99,88,63,30.13,29.93,5,2,15,0.01
2013-1-28,77.6,72.3,68.0,67.2,65.1,63.4,88,79,64,30.00,29.83,6,3,17,0.00
2013-1-29,77.4,67.6,54.2,67.1,61.1,35.6,92,80,46,29.84,29.43,7,3,19,0.34
2013-1-30,56.0,47.0,34.0,40.2,30.4,23.1,77,54,33,30.16,29.67,4,2,17,0.00
2013-1-31,69.9,49.9,32.0,29.9,26.2,21.0,83,46,18,30.22,30.10,5,1,18,0.00
2013-2-1,62.6,43.4,30.0,37.5,28.2,19.2,79,56,36,30.42,30.19,3,1,12,0.00
2013-2-2,69.0,54.6,44.1,47.3,39.8,34.0,86,60,29,30.33,30.17,3,1,10,0.00
2013-2-3,71.0,54.2,36.7,39.4,33.5,29.8,89,52,22,30.33,30.01,3,1,9,0.00
2013-2-4,73.5,61.2,55.3,57.7,49.7,32.4,93,68,37,30.00,29.80,5,1,12,0.00
2013-2-5,64.9,58.7,55.1,60.8,57.1,53.6,98,94,86,30.02,29.88,2,0,7,0.01
2013-2-6,74.0,62.1,54.2,62.3,58.1,53.4,98,88,54,30.03,29.87,5,1,12,0.00
2013-2-7,80.6,64.2,56.3,61.1,55.3,45.2,94,75,32,30.09,29.79,5,2,16,0.00
2013-2-8,65.4,53.4,43.1,47.9,37.1,30.1,80,57,27,30.26,30.09,4,1,14,0.00
2013-2-9,59.9,50.7,47.2,58.8,46.9,39.7,97,87,67,30.15,29.77,5,1,13,0.01
2013-2-10,69.2,58.9,45.5,63.6,41.0,26.4,97,58,20,30.03,29.67,7,2,16,1.09
2013-2-11,55.1,50.9,45.8,41.6,36.2,30.7,79,58,43,30.17,30.01,4,1,13,0.00
2013-2-12,49.2,46.9,43.3,46.9,44.3,40.4,95,90,80,30.06,29.87,3,1,9,0.26
2013-2-13,59.5,46.2,39.6,40.9,37.3,33.0,92,73,37,30.19,30.04,2,0,8,0.00
2013-2-14,60.1,41.9,33.3,42.3,36.7,32.0,97,83,50,30.13,30.07,3,0,8,0.00
2013-2-15,53.1,46.7,32.8,40.4,29.8,19.7,76,53,30,30.40,30.11,4,1,12,0.00
2013-2-16,33.6,31.4,30.1,26.8,25.2,23.7,84,77,71,30.41,30.39,0,0,0,0.00
2013-2-17,71.0,55.5,38.8,47.5,35.1,29.5,76,50,25,30.20,29.93,7,3,18,0.00
2013-2-18,78.4,62.9,51.1,58.2,47.0,32.2,81,59,30,30.12,29.75,7,4,23,0.00
2013-2-19,62.4,51.8,36.8,35.3,29.5,25.2,76,44,25,30.34,30.12,4,1,10,0.00
2013-2-20,51.8,44.4,40.8,41.4,37.6,32.6,87,77,48,30.21,29.82,4,2,17,0.10
2013-2-21,69.0,52.3,42.5,50.9,40.3,31.0,94,67,27,29.95,29.63,4,2,15,0.06
2013-2-22,50.9,41.3,32.2,38.4,28.5,22.5,81,62,42,30.17,29.93,3,1,11,0.00
2013-2-23,58.3,42.6,30.0,33.9,28.9,25.0,82,60,34,30.12,29.95,3,0,8,0.00
2013-2-24,71.1,53.5,33.5,46.3,38.8,30.0,89,61,35,29.96,29.64,5,2,15,0.00
2013-2-25,62.9,52.4,40.7,52.4,40.4,30.8,84,65,37,29.65,29.45,7,3,22,0.00
2013-2-26,60.4,47.3,41.1,37.8,34.2,32.4,77,62,38,29.92,29.65,5,2,20,0.00
2013-2-27,59.1,47.0,36.7,34.1,29.5,21.1,85,54,27,30.24,29.91,4,1,14,0.00
2013-2-28,56.3,41.8,35.7,32.5,29.3,26.8,78,62,36,30.31,30.24,3,1,15,0.00
2013-3-1,57.1,43.8,29.7,33.8,29.5,25.5,88,59,37,30.33,30.21,3,1,10,0.00
2013-3-2,56.4,41.8,31.1,29.6,25.4,21.0,73,54,30,30.46,30.26,3,1,13,0.00
2013-3-3,70.9,54.4,35.8,44.7,32.2,25.6,70,46,26,30.26,29.81,7,3,18,0.00
2013-3-4,60.4,57.2,55.9,46.9,44.8,43.8,71,63,57,29.82,29.72,6,4,21,0.00
2013-3-5,59.2,47.8,40.8,35.1,31.4,19.9,61,54,22,30.39,30.13,4,2,13,0.00
2013-3-6,62.6,47.8,35.1,26.7,23.1,16.7,64,40,19,30.49,30.23,3,0,6,0.00
2013-3-7,71.4,56.6,39.8,35.8,29.4,19.5,61,37,21,30.26,30.11,6,2,10,0.00
2013-3-8,63.3,59.3,53.3,57.1,50.5,34.8,84,73,43,30.20,30.00,5,2,10,0.00
2013-3-9,69.3,64.4,60.4,65.0,60.3,55.4,95,87,78,30.00,29.65,6,3,11,0.21
2013-3-10,65.0,51.4,37.1,62.6,41.1,30.7,94,69,52,30.10,29.69,6,2,11,0.42
2013-3-11,53.4,38.4,30.4,32.6,30.0,25.7,95,74,35,30.15,30.06,2,0,5,0.00
2013-3-12,51.8,45.5,37.9,34.5,33.3,32.0,79,63,48,30.23,30.15,0,0,1,0.00
2013-3-13,70.6,54.8,41.7,41.9,36.4,33.8,79,53,28,30.47,30.32,3,1,7,0.00
2013-3-14,79.4,63.0,47.5,47.7,41.5,34.1,65,47,31,30.37,30.17,5,2,9,0.00
2013-3-15,82.2,68.3,54.2,57.0,49.2,44.4,88,55,27,30.18,29.88,6,3,10,0.00
2013-3-16,82.5,72.0,58.3,60.5,56.0,49.3,87,58,44,29.88,29.68,8,4,13,0.00
2013-3-17,70.0,68.1,67.6,61.0,60.1,58.5,79,76,68,29.74,29.72,6,4,9,0.00
2013-3-18,66.6,62.2,57.3,63.6,56.9,50.1,92,83,76,29.83,29.68,2,2,5,0.00
2013-3-22,66.3,51.1,46.6,61.7,47.3,43.8,95,87,69,29.86,29.58,3,1,7,0.00
2013-3-23,55.4,51.1,46.8,50.3,47.9,45.2,95,89,81,29.85,29.68,2,0,6,0.06
2013-3-24,55.9,46.9,39.8,48.6,31.5,22.2,94,58,35,30.20,29.82,4,2,10,0.01
2013-3-25,56.1,43.6,27.6,27.2,21.7,16.9,79,45,22,30.43,30.20,3,1,8,0.00
2013-3-26,60.9,44.6,29.2,29.3,23.3,18.1,71,46,25,30.54,30.33,2,0,6,0.00
2013-3-27,72.0,55.6,38.7,42.9,33.5,24.1,61,45,28,30.35,30.10,6,2,11,0.00
2013-3-28,71.6,62.6,51.7,57.8,52.1,42.6,83,69,56,30.24,30.09,4,2,10,0.00
2013-3-29,78.0,68.2,61.2,60.2,58.0,56.3,84,71,53,30.19,30.02,5,3,12,0.00
2013-3-30,78.3,67.4,55.9,65.5,60.7,54.5,96,80,62,30.09,29.88,5,1,9,0.94
2013-3-31,76.2,66.6,56.3,63.6,58.1,50.8,94,75,50,29.98,29.79,4,1,7,0.22
2013-4-1,80.7,65.4,48.4,54.6,51.2,46.4,96,65,33,30.08,29.93,2,1,6,0.00
2013-4-2,73.2,65.7,52.0,64.3,58.1,43.2,89,77,64,30.02,29.89,5,2,11,0.01
2013-4-3,54.7,50.5,46.0,48.2,46.6,43.8,94,87,71,30.07,29.96,3,1,4,0.48
2013-4-4,52.2,49.1,44.2,44.0,42.5,40.9,88,78,71,30.22,30.15,2,0,3,0.03
2013-4-5,70.3,44.0,40.7,44.7,40.7,38.6,93,89,40,30.22,30.15,2,0,2,0.00
2013-4-6,55.4,55.2,55.1,49.8,49.8,49.7,82,82,81,29.99,29.98,2,2,6,0.00
2013-4-7,73.7,71.6,68.5,62.7,62.0,61.4,78,72,67,29.80,29.74,5,3,8,0.00
2013-4-8,76.1,71.2,65.6,65.7,63.0,58.4,83,75,70,29.77,29.66,6,4,11,0.00
2013-4-9,84.5,74.9,68.0,66.5,64.9,61.9,88,72,52,29.71,29.61,7,4,13,0.00
2013-4-10,45.9,43.2,40.7,42.0,39.8,36.9,94,88,79,29.99,29.85,2,1,6,0.47
2013-4-11,61.3,45.9,39.9,37.8,33.8,31.4,80,64,39,29.99,29.88,2,1,6,0.00
2013-4-12,81.3,71.2,44.1,48.8,45.6,41.7,94,43,26,30.02,29.88,2,1,5,0.00
2013-4-13,80.0,69.8,50.9,52.1,49.6,45.1,83,51,33,30.01,29.78,4,2,12,0.00
2013-4-14,82.3,70.1,56.6,65.9,59.0,48.6,85,69,56,29.78,29.55,5,2,11,0.00
2013-4-15,88.3,77.3,68.0,70.2,67.0,65.0,92,72,51,29.74,29.60,5,3,11,0.00
2013-4-16,75.2,73.1,71.9,67.9,66.2,64.7,85,79,73,29.88,29.74,4,3,11,0.00
2013-4-18,59.1,50.9,45.2,50.7,41.5,34.6,93,71,51,30.16,29.73,3,1,8,1.19
2013-4-19,66.0,50.9,37.6,37.7,32.6,27.3,82,53,24,30.30,30.15,3,1,7,0.00
2013-4-20,73.4,59.3,45.0,40.0,36.5,34.1,69,45,27,30.23,30.03,5,2,8,0.00
2013-4-21,73.9,60.5,47.1,52.2,47.5,39.5,86,64,45,30.23,30.08,3,1,8,0.00
2013-4-22,80.1,67.3,53.3,60.9,54.6,46.8,80,65,51,30.12,29.85,5,2,14,0.00
2013-4-23,68.3,56.0,42.9,62.5,51.0,39.1,90,83,71,30.19,29.80,4,2,10,0.00
2013-4-24,63.9,50.8,39.9,41.5,37.5,34.2,91,63,38,30.34,30.19,3,1,8,0.08
2013-4-25,76.4,62.9,49.2,47.5,42.8,37.6,67,49,32,30.35,30.16,3,1,6,0.00
2013-4-26,78.8,67.8,59.3,68.3,57.1,44.6,82,69,50,30.18,29.97,3,1,9,0.00
2013-4-27,77.8,69.8,58.6,66.1,60.6,55.1,89,74,51,30.10,29.97,3,1,6,0.00
2013-4-28,86.5,68.1,51.8,67.2,59.8,50.4,97,77,51,30.04,29.85,2,0,5,0.00
2013-4-29,87.7,74.3,59.0,68.0,62.0,57.3,96,69,38,29.90,29.77,4,1,8,0.00
2013-4-30,84.2,72.1,59.1,66.7,62.3,56.8,96,73,48,29.83,29.73,4,1,9,0.00
2013-5-1,87.3,74.0,63.5,69.0,64.5,61.1,93,74,45,29.95,29.78,2,1,6,0.00
2013-5-2,68.2,53.3,44.0,62.1,47.3,37.3,90,80,72,30.34,29.93,4,1,9,0.01
2013-5-3,68.1,53.5,40.2,37.5,33.2,27.0,80,51,23,30.32,30.04,3,1,6,0.00
2013-5-4,75.3,58.5,41.9,41.3,35.8,24.8,85,50,17,30.04,29.90,4,1,6,0.00
2013-5-5,68.3,54.0,46.2,47.3,41.5,39.1,76,64,45,30.16,30.03,2,1,5,0.00
2013-5-7,88.3,76.1,54.5,57.3,54.6,51.9,93,50,32,30.07,29.92,2,1,7,0.00
2013-5-8,87.6,74.7,62.2,60.9,57.1,53.6,76,57,36,29.99,29.85,4,2,9,0.00
2013-5-9,73.4,68.8,66.7,67.8,65.2,59.2,97,89,63,29.96,29.84,3,1,4,0.43
2013-5-10,82.0,72.9,65.1,68.4,64.5,59.2,97,77,59,30.03,29.88,2,0,6,0.00
2013-5-11,81.6,70.6,59.9,59.9,53.9,47.7,86,59,31,30.16,30.01,3,1,7,0.00
2013-5-12,81.6,68.0,56.8,55.0,43.6,35.2,69,45,21,30.26,30.14,2,0,4,0.00
2013-5-13,89.5,72.3,55.0,54.1,48.0,43.3,69,45,24,30.24,30.10,4,1,8,0.00
2013-5-14,88.8,76.3,61.7,63.0,57.4,50.5,83,54,31,30.15,29.97,4,2,9,0.00
2013-5-15,77.8,71.5,63.3,68.7,66.7,61.6,96,85,67,30.03,29.75,4,2,11,2.32
2013-5-16,83.0,71.1,62.5,72.5,66.9,61.3,97,87,70,29.84,29.73,4,1,8,0.04
2013-5-17,93.3,81.0,72.3,75.2,72.6,70.0,97,78,54,29.84,29.76,4,1,9,0.00
2013-5-18,84.1,76.6,72.6,74.0,70.3,67.8,87,81,68,29.88,29.79,3,2,9,0.00
2013-5-20,90.3,84.4,81.6,72.5,71.1,70.0,70,65,56,29.74,29.63,4,2,11,0.00
2013-5-21,85.2,73.1,62.9,73.0,67.3,60.4,95,83,67,29.86,29.64,5,2,9,1.57
2013-5-22,87.7,68.2,54.8,67.0,59.6,54.0,98,78,36,29.94,29.82,1,0,5,0.00
2013-5-24,88.6,79.2,68.2,75.1,70.9,64.9,95,77,59,30.19,30.03,4,1,7,0.78
2013-5-25,86.4,72.8,67.7,73.1,68.7,63.9,97,88,62,30.16,30.03,6,1,8,0.46
2013-5-26,87.8,78.7,70.5,73.8,71.2,68.6,96,79,57,30.07,29.91,3,2,8,0.08
2013-5-27,88.5,79.7,72.6,71.6,69.8,68.3,87,73,54,29.97,29.77,4,2,8,0.00
2013-5-28,87.2,79.8,72.2,70.3,68.5,66.0,87,69,51,29.87,29.75,5,3,12,0.00
2013-5-29,85.9,76.9,70.4,73.5,70.6,65.4,94,81,65,29.82,29.69,7,3,12,0.41
2013-5-30,90.1,80.7,74.3,75.6,72.8,70.1,88,78,61,29.78,29.67,5,3,9,0.01
2013-5-31,92.4,83.1,77.5,75.6,73.6,72.0,85,74,54,29.81,29.65,4,3,11,0.00
2013-6-1,90.2,80.4,76.6,76.7,72.6,68.7,88,77,62,29.93,29.69,4,2,8,0.01
2013-6-2,85.1,75.8,66.8,68.3,59.0,50.5,81,58,32,30.06,29.92,2,1,5,0.00
2013-6-3,92.0,76.4,60.5,64.8,61.2,57.5,91,63,36,29.99,29.82,2,0,4,0.00
2013-6-4,93.0,80.9,69.1,72.8,67.8,62.9,83,66,46,30.00,29.77,4,1,10,0.00
2013-6-5,93.5,82.5,72.7,74.3,70.7,68.2,89,69,46,29.92,29.72,4,1,6,0.00
2013-6-6,79.9,73.8,67.9,72.6,68.5,64.8,95,84,68,29.93,29.78,2,0,6,1.38
2013-6-7,85.7,72.8,60.6,65.1,60.2,56.2,97,68,38,30.00,29.88,2,0,4,0.00
2013-6-8,90.3,76.1,60.0,66.1,62.0,58.0,95,65,42,29.93,29.78,3,1,7,0.00
2013-6-9,90.8,78.4,68.5,72.1,68.6,63.3,96,74,50,29.93,29.83,3,0,4,1.54
2013-6-10,99.4,83.7,68.7,73.5,68.4,63.3,95,65,33,29.94,29.88,5,1,8,0.00
2013-6-11,95.8,85.2,75.3,75.1,72.2,68.4,89,67,46,30.00,29.89,3,1,6,0.00
2013-6-12,95.7,85.1,75.4,75.3,72.1,70.1,90,67,45,30.04,29.90,4,1,10,0.00
2013-6-13,100.7,87.0,74.3,75.1,71.5,68.3,86,62,36,30.03,29.86,3,1,8,0.00
2013-6-14,96.7,84.4,74.6,74.7,71.9,69.3,85,68,47,29.96,29.89,2,0,6,0.00
2013-6-15,91.8,83.2,71.1,77.7,73.4,68.0,95,73,59,29.96,29.86,3,0,4,0.36
2013-6-16,98.2,85.7,74.5,76.4,72.5,69.0,94,67,42,29.99,29.84,3,1,5,0.00
2013-6-17,85.2,79.0,69.2,78.8,73.0,66.7,96,82,64,30.02,29.83,4,0,7,0.64
2013-6-18,79.6,75.5,72.8,74.8,70.9,68.6,89,85,78,29.99,29.85,2,0,3,0.01
2013-6-19,94.8,84.7,71.1,77.6,74.0,69.3,98,72,54,29.98,29.84,2,1,4,0.00
2013-6-20,97.6,87.5,77.0,74.6,71.6,68.6,88,61,40,30.02,29.91,4,2,9,0.00
2013-6-21,97.4,85.9,76.3,74.4,71.6,66.5,84,64,39,30.05,29.93,3,2,8,0.00
2013-6-22,90.7,83.6,79.9,73.9,72.7,69.2,80,71,50,30.02,29.86,3,2,7,0.00
2013-6-23,97.5,89.3,76.9,74.6,70.2,65.7,84,55,39,29.97,29.85,15,2,15,0.00
2013-6-24,96.8,86.2,76.8,74.1,70.8,67.2,84,62,41,30.01,29.86,12,2,12,0.00
2013-6-25,99.0,87.0,77.7,74.6,70.5,65.3,82,60,37,29.97,29.79,5,2,12,0.00
2013-6-26,99.8,88.0,77.2,74.7,70.7,66.2,83,58,42,29.94,29.82,4,2,11,0.00
2013-6-27,102.4,87.7,79.3,76.3,70.9,67.1,78,59,38,29.99,29.83,3,1,8,0.00
2013-6-28,103.6,88.9,76.6,72.8,68.2,63.8,75,52,33,29.91,29.78,3,1,7,0.00
2013-6-29,98.3,86.7,74.2,71.0,64.1,57.8,76,50,27,29.87,29.77,3,1,6,0.00
2013-6-30,92.4,81.9,72.6,65.4,60.5,55.8,78,51,31,29.92,29.79,3,1,7,0.00
2013-7-1,88.9,78.3,68.0,63.1,59.7,56.7,74,54,36,30.00,29.92,2,1,6,0.00
2013-7-2,90.2,78.0,65.8,59.8,55.2,50.6,71,48,27,30.07,29.98,2,0,4,0.00
2013-7-3,94.5,78.2,61.5,63.8,56.2,50.0,90,52,23,30.05,29.92,2,0,4,0.00
2013-7-4,98.0,83.3,71.2,67.1,62.1,56.9,75,51,26,29.99,29.87,2,1,4,0.00
2013-7-5,97.7,80.8,70.1,65.1,63.1,60.0,77,57,31,29.98,29.83,1,0,5,0.00
2013-7-6,94.3,78.5,72.5,70.2,62.6,61.5,73,59,44,29.92,29.90,2,0,5,0.00
2013-7-7,83.7,79.7,75.0,72.9,70.6,67.3,77,74,70,29.97,29.95,1,1,2,0.00
2013-7-8,98.9,91.4,76.6,74.6,71.2,68.1,84,53,41,30.05,29.95,3,2,8,0.00
2013-7-9,101.7,89.0,77.8,73.5,67.6,61.4,82,52,28,30.10,29.94,5,2,11,0.00
2013-7-10,100.1,87.1,82.0,74.4,71.3,64.4,74,60,39,30.03,29.95,4,2,10,0.00
2013-7-12,93.6,88.1,82.2,75.0,74.2,73.1,75,64,55,29.95,29.94,1,0,2,0.00
2013-7-13,101.4,92.4,81.4,70.4,66.7,60.6,63,44,34,29.98,29.84,2,1,4,0.00
2013-7-14,81.8,73.3,69.2,70.3,66.7,60.0,94,81,49,30.00,29.86,3,0,5,0.22
2013-7-15,76.3,71.4,67.5,72.5,69.1,66.0,96,92,83,30.09,29.94,2,0,6,0.32
2013-7-16,93.6,78.0,71.5,75.1,72.4,69.5,96,84,51,30.21,30.06,3,0,6,0.66
2013-7-17,92.7,80.1,71.5,77.8,72.5,69.1,98,79,53,30.21,30.11,3,0,6,0.15
2013-7-18,97.3,83.5,71.3,75.9,71.6,69.2,95,70,44,30.17,29.98,3,0,5,0.00
2013-7-19,97.0,82.6,76.5,76.6,72.9,70.8,92,74,44,30.02,29.94,3,1,5,0.13
2013-7-20,97.8,89.4,79.6,77.2,72.8,67.0,78,59,38,29.92,29.82,2,1,4,0.00
2013-7-21,98.3,85.6,73.6,78.1,72.9,69.7,92,68,43,29.91,29.81,3,1,8,0.00
2013-7-22,99.6,87.6,77.4,76.7,73.6,69.9,90,66,41,29.95,29.82,4,2,11,0.00
2013-7-23,100.3,89.1,79.1,78.4,73.4,65.3,85,62,40,29.94,29.78,4,2,9,0.00
2013-7-24,98.0,85.1,75.9,75.1,70.8,66.4,81,64,39,30.03,29.83,3,1,8,0.00
2013-7-25,98.8,85.3,72.9,76.7,72.6,69.9,92,68,44,30.03,29.94,1,0,4,0.00
2013-7-26,96.0,84.2,76.9,78.8,73.4,71.8,92,71,48,30.00,29.82,4,1,12,0.07
2013-7-27,92.6,80.8,72.5,72.3,68.4,64.7,86,68,41,30.00,29.88,2,1,7,0.00
2013-7-28,96.4,82.0,67.6,72.6,69.1,65.2,94,67,42,29.98,29.85,2,0,6,0.00
2013-7-29,97.5,86.7,77.7,75.9,71.9,64.4,87,64,39,29.98,29.88,4,2,10,0.00
2013-7-30,99.6,88.5,78.7,74.9,70.3,62.9,82,57,41,30.06,29.91,4,2,10,0.00
2013-7-31,86.7,82.3,79.1,71.1,68.4,66.7,75,63,52,30.01,29.95,1,1,4,0.00
2013-8-1,105.8,89.0,81.2,75.2,72.8,69.1,82,61,32,29.97,29.87,2,0,7,0.00
2013-8-2,94.8,83.1,79.3,73.6,71.5,70.0,77,68,49,29.91,29.88,2,0,8,0.00
2013-8-4,103.3,96.3,87.5,74.6,70.1,65.8,64,44,31,30.03,29.89,3,1,8,0.00
2013-8-5,105.4,92.3,81.6,73.0,68.6,63.2,71,49,29,29.98,29.80,4,1,12,0.00
2013-8-6,105.3,92.2,79.9,72.1,68.5,63.1,74,48,28,29.89,29.75,4,2,11,0.00
2013-8-7,107.1,93.1,80.2,73.6,69.4,64.4,76,49,28,29.86,29.72,3,2,15,0.00
2013-8-8,103.4,91.4,80.3,74.6,69.7,65.1,79,52,32,29.85,29.73,3,1,10,0.00
2013-8-9,106.4,91.1,80.5,73.7,66.9,56.0,71,48,22,29.92,29.79,3,1,10,0.00
2013-8-10,100.7,88.1,76.6,76.0,72.0,68.1,90,62,38,30.03,29.91,2,0,6,0.00
2013-8-11,104.9,89.8,76.1,75.2,70.9,64.6,81,57,33,30.05,29.91,2,1,7,0.00
2013-8-12,101.9,90.0,78.5,74.5,70.8,67.1,80,56,35,30.02,29.88,3,1,11,0.00
2013-8-13,102.5,87.9,76.5,75.2,70.6,67.2,90,58,35,29.98,29.85,4,1,11,0.16
2013-8-15,91.2,83.0,72.6,68.5,65.6,62.2,73,56,45,30.06,29.93,2,0,6,0.00
2013-8-16,90.3,78.1,67.5,69.7,65.1,61.5,95,67,43,30.06,29.94,3,0,8,0.15
2013-8-17,91.3,77.0,62.6,63.2,61.1,58.8,91,61,35,30.09,29.95,2,0,7,0.00
2013-8-18,94.2,79.3,66.3,69.4,63.8,60.3,87,62,33,30.09,29.97,2,0,6,0.00
2013-8-19,97.7,84.2,72.4,69.8,64.3,59.7,81,55,30,30.06,29.91,2,0,8,0.00
2013-8-20,99.6,85.1,71.3,67.9,63.1,59.1,75,50,28,30.03,29.92,2,0,8,0.00
2013-8-21,98.9,85.6,74.1,70.2,66.4,61.1,77,54,34,30.07,29.95,3,1,8,0.00
2013-8-22,101.5,88.3,74.9,73.9,69.3,66.4,79,56,34,30.07,29.89,3,1,9,0.00
2013-8-23,102.5,89.1,78.3,75.1,70.2,67.0,77,56,34,30.01,29.86,3,0,8,0.00
2013-8-24,102.6,88.6,77.7,75.4,70.3,65.9,76,57,31,30.04,29.93,4,0,15,0.01
2013-8-25,99.6,88.1,75.8,73.5,69.1,66.3,79,55,36,30.12,30.01,2,0,8,0.00
2013-8-26,98.8,86.7,74.8,72.0,68.4,62.4,85,57,32,30.15,30.01,3,1,8,0.00
2013-8-27,95.9,83.4,75.1,73.3,70.3,66.4,86,67,39,30.11,29.99,4,1,13,0.00
2013-8-28,100.9,85.7,72.2,73.5,68.4,65.0,87,60,33,30.08,29.96,3,1,8,0.00
2013-8-29,103.4,88.2,74.3,70.7,67.2,62.8,80,54,29,30.05,29.92,2,0,7,0.00
2013-8-30,105.2,90.3,76.9,71.3,66.6,63.5,71,49,27,29.99,29.83,2,0,6,0.00
2013-8-31,106.8,92.0,79.1,73.4,66.9,60.1,73,47,23,29.88,29.75,2,0,9,0.00
2013-9-1,106.4,92.3,80.2,74.3,68.1,62.9,79,48,27,29.86,29.72,3,1,9,0.05
2013-9-2,95.8,83.6,76.2,76.3,72.7,70.1,92,71,44,29.98,29.81,2,0,7,0.15
2013-9-3,101.6,86.8,75.0,73.5,66.9,59.9,79,54,29,29.98,29.85,3,0,7,0.00
2013-9-4,102.7,88.4,74.2,75.2,68.8,63.8,85,55,29,30.02,29.91,2,0,7,0.00
2013-9-5,101.9,88.4,76.7,74.4,68.1,60.9,81,54,27,30.08,29.96,2,0,6,0.00
2013-9-6,102.9,88.0,73.6,73.2,66.2,62.7,74,51,29,30.06,29.91,3,0,7,0.00
2013-9-7,101.6,88.0,76.6,73.8,67.6,62.3,78,53,28,30.02,29.88,3,1,7,0.00
2013-9-8,99.9,85.8,70.7,72.7,66.9,60.9,88,57,30,29.97,29.84,2,1,8,0.00
2013-9-9,97.9,86.1,73.2,71.8,67.6,64.3,84,56,35,29.98,29.88,4,1,11,0.00
2013-9-10,86.3,78.5,74.8,74.5,70.3,68.8,85,76,66,30.08,29.96,2,0,7,0.00
2013-9-11,97.8,87.6,71.3,71.7,69.3,66.2,86,56,40,30.11,29.97,3,1,10,0.00
2013-9-12,99.6,86.1,74.0,71.4,68.9,65.6,85,60,34,30.05,29.90,2,0,6,0.00
2013-9-13,98.7,86.0,75.9,73.7,69.8,63.0,82,61,38,29.95,29.80,2,0,6,0.01
2013-9-14,94.7,86.6,79.9,65.4,64.1,63.1,60,48,38,29.93,29.85,1,0,3,0.00
2013-9-15,96.5,84.7,74.2,71.9,65.8,59.2,62,54,41,30.02,29.92,2,0,7,0.00
2013-9-16,98.7,86.8,75.0,73.5,67.3,61.6,77,55,34,30.07,29.93,2,0,6,0.00
2013-9-17,95.4,86.3,76.7,71.0,67.8,65.0,73,55,40,30.05,29.92,2,0,8,0.00
2013-9-18,99.4,86.9,76.6,72.6,67.3,61.7,73,54,30,30.00,29.84,3,1,9,0.00
2013-9-19,92.0,82.3,73.1,75.9,71.5,65.2,95,71,53,29.97,29.84,4,1,8,0.49
2013-9-20,75.1,72.9,69.5,72.6,70.6,65.1,98,93,84,29.92,29.83,2,1,8,1.63
2013-9-21,85.8,71.7,61.2,65.4,54.4,47.1,87,59,28,29.97,29.85,3,1,9,0.00
2013-9-22,86.1,69.9,55.3,59.1,54.9,52.3,93,63,32,29.94,29.79,2,0,6,0.00
2013-9-23,88.8,73.1,56.5,62.7,56.7,53.8,92,60,34,29.87,29.74,3,0,8,0.00
2013-9-24,95.9,79.4,64.3,68.4,58.0,47.5,91,54,22,29.91,29.82,2,0,7,0.00
2013-9-25,97.5,76.6,58.0,59.0,53.7,48.6,86,50,20,29.90,29.76,2,0,6,0.00
2013-9-26,96.2,81.0,64.7,63.6,57.9,52.9,72,48,28,29.87,29.78,3,1,10,0.00
2013-9-27,89.4,79.3,67.3,73.2,67.5,60.6,82,68,57,29.93,29.82,3,1,9,0.00
2013-9-28,86.9,78.4,72.8,76.8,72.4,70.1,96,82,69,29.95,29.86,3,2,11,3.50
2013-9-29,84.4,73.1,63.8,62.3,57.8,51.0,85,61,33,30.04,29.90,2,0,6,0.00
2013-9-30,88.7,73.9,57.9,66.7,58.9,53.0,95,64,32,29.92,29.80,2,0,6,0.00
2013-10-1,92.0,79.0,69.7,72.4,69.2,65.0,96,75,42,29.94,29.83,2,1,10,0.00
2013-10-2,88.5,79.7,73.5,73.5,71.2,69.1,93,76,56,29.97,29.85,3,2,9,0.00
2013-10-3,91.3,81.1,73.5,74.6,71.6,68.7,91,75,51,29.92,29.79,3,2,11,0.00
2013-10-4,89.0,80.7,74.6,73.1,70.8,68.3,90,73,53,29.90,29.81,4,2,11,0.00
2013-10-5,79.6,65.3,52.2,71.8,59.2,45.2,94,81,62,30.10,29.85,2,1,13,0.28
2013-10-6,76.4,60.0,49.4,51.3,44.8,35.4,97,64,23,30.13,30.03,2,0,10,0.00
2013-10-7,83.3,63.7,46.9,50.0,44.8,38.4,94,56,21,30.16,30.06,1,0,5,0.00
2013-10-8,83.0,65.5,48.9,56.5,50.2,45.0,93,62,32,30.13,29.99,2,0,7,0.00
2013-10-9,85.2,69.8,55.6,59.8,55.5,52.0,89,63,35,30.08,29.97,3,1,9,0.00
2013-10-10,84.9,71.8,59.4,64.2,59.6,55.7,90,68,43,30.06,29.88,3,1,9,0.00
2013-10-11,86.5,75.9,66.7,72.0,67.9,61.7,93,77,61,29.94,29.81,4,2,11,0.00
2013-10-12,91.0,77.8,70.7,75.4,70.6,66.8,91,79,59,30.06,29.86,4,1,9,0.03
2013-10-13,75.8,71.4,67.6,70.4,68.2,65.7,97,90,81,30.20,30.04,1,0,5,0.01
2013-10-14,72.9,70.7,68.4,71.7,69.6,67.2,97,96,93,30.13,29.92,3,1,9,1.41
2013-10-15,79.4,70.5,58.7,73.7,68.3,57.3,96,93,81,29.97,29.90,3,1,9,0.36
2013-10-17,58.1,54.4,52.5,50.5,50.0,49.1,92,85,72,30.02,30.00,0,0,4,0.00
2013-10-18,70.3,60.3,50.3,59.6,53.4,48.8,97,79,57,30.09,29.90,2,0,15,0.00
2013-10-19,67.6,52.8,42.2,49.4,42.1,38.4,89,70,37,30.23,30.09,2,0,7,0.00
2013-10-20,73.0,56.8,40.7,49.3,44.7,39.1,96,68,37,30.09,29.89,4,1,12,0.00
2013-10-21,74.7,61.0,53.0,63.8,54.1,48.0,88,78,66,30.11,29.91,3,1,10,0.00
2013-10-22,77.2,58.3,40.6,50.0,45.2,39.0,97,67,32,30.18,30.03,3,0,10,0.00
2013-10-23,85.4,64.3,47.9,55.4,50.0,46.2,96,65,26,30.14,30.03,2,0,5,0.00
2013-10-24,80.0,65.9,51.4,57.4,51.1,45.4,88,60,42,30.28,30.06,2,0,8,0.00
2013-10-25,61.4,53.9,50.0,46.0,44.6,41.8,86,71,53,30.42,30.28,2,0,9,0.00
2013-10-26,55.5,55.3,55.2,49.8,49.6,49.5,81,81,81,30.22,30.22,0,0,1,0.00
2013-10-27,68.2,63.9,57.8,59.8,58.3,55.2,92,82,73,30.05,30.01,0,0,1,0.00
2013-10-28,77.0,66.0,53.7,68.5,62.3,52.6,98,89,74,30.12,30.00,3,0,6,0.00
2013-10-29,75.6,72.2,68.8,70.3,68.5,66.3,94,88,83,30.08,29.99,3,2,6,0.00
2013-10-30,72.5,68.9,65.6,69.3,66.7,63.9,96,93,87,30.01,29.80,5,2,11,0.16
2013-10-31,75.3,67.4,51.2,69.2,57.0,44.2,98,74,35,29.88,29.67,5,2,8,0.01
2013-11-1,78.4,60.8,46.8,55.4,49.3,44.2,98,70,40,30.09,29.83,3,1,8,0.00
2013-11-2,68.9,56.9,44.9,44.7,40.9,36.1,89,58,30,30.30,30.09,3,0,6,0.00
2013-11-3,67.1,54.1,40.0,47.4,42.5,37.4,94,68,40,30.23,30.01,4,1,10,0.00
2013-11-4,60.3,57.7,53.5,59.4,53.8,47.4,97,87,66,30.11,30.01,2,1,6,1.00
2013-11-5,69.1,64.8,60.3,67.9,63.8,59.4,98,97,94,30.06,29.93,3,1,8,0.36
2013-11-6,69.8,55.6,41.9,68.6,51.1,39.2,97,85,62,30.38,29.96,2,1,8,0.07
2013-11-7,65.4,49.3,36.1,45.8,41.1,35.1,98,77,41,30.53,30.37,1,0,3,0.00
2013-11-8,66.2,54.3,40.1,47.5,43.7,39.1,98,71,41,30.41,30.15,3,1,7,0.00
2013-11-9,68.9,59.9,54.7,53.8,49.6,45.8,79,69,57,30.24,30.12,3,1,6,0.00
2013-11-10,70.0,57.2,47.9,51.3,48.4,44.5,95,74,43,30.35,30.23,1,0,2,0.00
2013-11-11,76.6,57.2,44.4,57.0,50.5,43.6,99,81,48,30.30,30.17,1,0,4,0.00
2013-11-12,61.0,48.6,36.0,57.2,35.1,20.5,97,62,32,30.71,30.28,3,1,7,0.00
2013-11-13,53.8,39.3,29.3,31.3,26.5,22.5,85,62,37,30.72,30.41,1,0,3,0.00
2013-11-14,59.9,47.1,31.2,46.9,34.2,26.7,85,63,32,30.41,30.05,3,1,6,0.00
2013-11-15,71.8,60.6,53.4,59.5,53.7,46.9,87,79,62,30.04,29.85,3,1,7,0.00
2013-11-16,76.2,68.8,60.7,70.2,64.5,58.5,95,87,72,29.87,29.68,4,2,13,0.00
2013-11-17,87.7,75.0,63.3,70.6,59.8,40.4,90,63,32,30.00,29.68,6,2,10,0.00
2013-11-18,69.8,62.3,53.8,42.0,36.0,31.7,53,38,25,30.18,30.00,2,1,5,0.00
2013-11-19,69.4,60.1,54.9,42.5,37.4,32.7,56,44,27,30.19,30.03,3,0,6,0.00
2013-11-20,64.8,56.9,45.8,53.8,43.2,34.8,80,60,48,30.05,29.91,4,1,6,0.00
2013-11-21,72.6,64.2,44.4,69.2,61.5,41.9,96,91,80,30.21,29.96,2,1,4,0.03
2013-11-22,44.4,37.4,35.3,41.9,35.5,33.5,95,93,89,30.48,30.20,2,1,10,0.16
2013-11-23,43.0,38.3,35.8,38.6,34.7,27.8,95,87,68,30.58,30.46,2,1,5,0.03
2013-11-24,36.5,34.4,32.0,28.3,26.6,23.3,79,73,63,30.63,30.39,2,1,6,0.00
2013-11-25,37.9,35.1,32.8,35.9,33.0,27.4,96,92,73,30.40,30.17,1,0,2,0.81
2013-11-26,53.5,46.5,38.0,37.9,32.4,24.2,75,58,46,30.40,30.16,3,1,8,0.00
2013-11-27,47.7,35.2,27.2,25.2,22.1,17.8,87,61,36,30.50,30.37,2,0,5,0.00
2013-11-28,41.5,28.9,25.6,29.4,24.5,22.2,91,84,61,30.48,30.39,1,0,4,0.00
2013-11-29,58.6,51.0,44.6,41.0,37.6,35.5,72,61,46,30.54,30.38,3,1,6,0.00
2013-11-30,65.9,51.9,35.6,53.5,44.3,32.7,94,76,56,30.38,30.16,4,1,6,0.00
2013-12-1,70.2,58.9,50.2,59.0,54.3,48.3,96,86,66,30.19,29.90,6,1,10,0.00
2013-12-2,71.6,54.2,42.4,54.2,48.5,41.5,99,83,51,29.90,29.67,2,0,4,0.00
2013-12-3,46.5,43.4,39.9,45.3,42.6,39.1,98,97,95,29.69,29.59,0,0,0,0.00
2013-12-4,80.1,65.1,49.0,62.0,50.9,38.1,83,61,44,29.88,29.66,2,1,5,0.00
2013-12-5,48.8,35.2,30.0,37.9,28.0,23.4,93,76,61,30.20,29.88,3,1,6,0.14
2013-12-6,32.9,28.3,23.6,31.3,25.7,19.9,94,90,85,30.56,30.13,2,0,4,0.16
2013-12-7,26.3,23.7,20.4,24.6,20.8,16.6,93,89,84,30.59,30.33,0,0,0,0.00
2013-12-8,33.6,30.9,26.2,31.8,29.2,24.5,95,93,92,30.31,30.09,1,0,3,0.00
2013-12-9,32.5,31.5,27.5,31.0,29.0,23.6,96,90,81,30.45,30.20,3,1,5,0.00
2013-12-10,40.3,27.5,19.0,29.2,21.9,16.3,90,80,61,30.57,30.41,2,0,4,0.00
2013-12-11,44.4,37.3,24.6,35.4,31.0,23.4,96,78,66,30.63,30.44,2,0,3,0.02
2013-12-12,51.2,38.2,25.7,34.9,30.4,23.4,93,75,51,30.65,30.34,1,0,3,0.00
2013-12-13,46.8,43.3,41.3,46.0,39.3,33.2,97,86,71,30.34,29.83,4,1,5,0.07
2013-12-14,47.3,41.7,30.8,46.5,37.5,26.8,98,85,68,30.35,29.81,3,1,8,0.00
2013-12-15,61.5,42.4,27.2,37.3,31.8,25.2,96,70,35,30.39,30.25,3,0,4,0.00
2013-12-16,67.3,50.0,35.8,40.6,36.5,32.2,87,63,35,30.27,30.16,3,1,7,0.00
2013-12-17,70.9,50.6,32.9,42.2,37.4,30.8,95,65,32,30.31,30.22,1,0,3,0.00
2013-12-18,70.2,62.1,55.5,47.7,45.9,43.5,73,56,39,30.12,30.03,5,3,9,0.00
2013-12-19,72.2,62.1,52.6,63.2,56.2,47.2,92,82,67,30.02,29.75,6,3,13,0.00
2013-12-20,70.1,57.8,36.2,64.3,54.0,34.6,95,87,75,29.85,29.76,4,2,10,0.00
2013-12-21,53.8,43.7,35.5,53.0,42.8,33.9,98,97,94,29.79,29.55,4,0,5,1.72
2013-12-22,46.8,37.4,30.3,46.3,32.1,26.3,98,81,66,30.42,29.80,2,1,5,0.00
2013-12-23,47.7,33.6,22.3,31.8,27.3,20.8,95,79,50,30.60,30.41,2,0,4,0.00
2013-12-24,52.0,37.9,23.7,38.1,30.6,21.8,94,76,55,30.59,30.31,5,1,8,0.00
2013-12-25,59.3,44.1,33.5,44.5,36.0,29.5,88,74,56,30.44,30.30,3,1,7,0.00
2013-12-26,54.9,40.0,30.2,39.3,34.3,28.8,96,82,55,30.49,30.36,1,0,3,0.00
2013-12-27,59.3,43.8,29.9,42.3,36.6,28.8,98,78,47,30.49,30.35,2,0,4,0.00
2013-12-28,61.2,48.0,33.5,44.1,39.0,32.2,97,73,49,30.35,30.00,4,1,6,0.00
2013-12-29,52.2,40.3,32.3,44.3,33.6,24.7,90,77,70,30.32,29.96,3,1,7,0.00
2013-12-30,44.6,34.3,27.8,25.0,22.9,19.8,83,64,44,30.45,30.28,2,0,5,0.00
2013-12-31,54.6,39.4,25.0,31.0,26.5,21.8,89,63,37,30.48,30.24,3,1,7,0.00
2014-1-1,68.6,49.1,34.5,51.4,38.3,27.7,86,68,49,30.24,29.89,6,2,16,0.00
2014-1-2,44.1,32.3,24.7,27.1,20.9,17.7,83,64,42,30.51,30.21,4,1,10,0.00